Wind_Speed
100 100 101 101 102 102 103 104 104 105 105 105 106 106 106 106 106 106 106 106 107 107 108 109 109 110 111 112 113 114 115 116 117 118 119 120 121 121 121 120 119 117 115 114 112 111 110 110 110 110 111 112 113 114 115 116 117 117 118 118 118 118 117 116 115 114 112 111 109 108 106 105 103 102 101 100 99 99 98 98 97 97 97 97 96 96
101 101 101 102 102 103 104 104 105 105 106 106 106 105 105 106 106 106 106 107 107 108 109 109 110 111 113 114 115 116 117 118 119 120 121 121 121 121 120 118 116 114 113 111 110 110 110 111 111 112 113 114 115 116 116 117 117 117 117 117 116 115 114 113 111 110 108 106 104 102 101 100 98 97 96 95 95 94 94 94 93 93 93 93 93 92
101 102 102 102 103 104 105 105 105 105 105 105 105 105 105 105 106 106 107 107 108 109 109 110 111 113 114 115 116 117 118 120 121 121 121 121 120 119 117 116 114 112 111 111 111 111 112 113 113 114 115 116 116 117 117 117 116 116 115 114 113 111 110 108 106 105 103 101 99 97 96 95 94 93 92 92 91 91 90 90 90 90 89 89 89 89
102 102 103 103 104 104 105 105 106 105 105 105 105 105 105 105 106 106 107 108 109 110 111 111 113 114 115 116 118 119 120 121 121 121 121 120 118 117 115 113 112 112 112 112 113 113 114 115 115 116 116 116 116 116 116 115 114 113 111 110 109 107 105 104 102 100 98 96 95 93 92 91 90 89 89 88 88 87 87 87 86 86 86 86 86 86
102 103 103 104 104 105 105 105 105 105 105 105 105 105 105 105 106 107 107 108 109 111 112 113 114 115 117 118 120 121 121 121 121 120 119 117 116 114 113 112 112 112 113 114 115 115 116 116 116 116 116 116 115 114 113 112 110 109 107 105 104 103 101 99 97 96 94 92 91 89 89 88 87 86 86 85 85 84 84 84 84 83 83 83 83 83
102 103 103 104 104 105 105 105 105 105 104 104 104 104 105 105 106 107 108 109 110 112 113 114 116 117 119 120 121 121 121 121 120 118 117 115 114 113 112 113 113 114 115 116 116 117 117 116 116 115 115 114 112 111 109 107 106 104 103 101 100 99 97 96 94 92 90 89 87 86 85 85 84 83 83 83 82 82 81 81 81 81 81 80 80 80
102 103 103 104 104 104 104 104 104 104 104 104 104 104 105 106 107 108 109 110 112 113 114 116 118 119 120 121 122 121 120 119 117 116 114 113 112 113 113 114 115 116 117 117 117 117 116 116 114 113 112 110 108 106 105 103 102 100 99 98 97 95 94 92 91 89 87 86 84 84 83 82 82 81 81 80 80 79 79 79 78 78 78 78 78 78
103 103 103 103 104 104 104 104 103 103 103 104 105 105 106 106 107 109 110 112 113 115 116 118 120 121 122 122 121 120 118 116 114 113 113 113 113 114 115 116 117 118 118 118 117 116 115 113 111 109 107 105 104 102 100 99 98 97 95 94 93 92 91 89 88 86 84 83 82 81 80 80 79 79 78 78 77 77 77 76 76 76 76 75 75 75
102 103 103 103 103 103 104 104 103 103 103 104 105 106 107 108 109 110 112 114 115 117 118 120 121 122 122 121 119 117 115 114 112 112 113 113 115 116 117 118 118 119 118 118 116 114 112 110 107 105 103 101 99 97 96 95 94 93 92 92 91 90 88 87 85 83 82 81 80 79 78 78 77 77 76 76 75 75 74 74 74 74 73 73 73 73
102 102 103 103 103 103 103 104 104 104 104 105 106 107 108 110 111 113 114 116 118 119 120 120 121 121 120 118 116 114 113 112 112 113 114 115 116 117 118 119 119 118 117 116 113 111 108 105 102 100 98 96 95 93 93 92 91 91 90 89 88 87 86 84 83 81 80 79 78 77 76 76 75 75 74 73 73 72 72 72 72 71 71 71 71 71
102 102 102 103 103 103 103 104 105 105 106 107 108 109 110 111 113 114 116 118 119 120 120 120 119 118 117 116 114 113 112 112 113 114 116 117 118 119 119 118 118 116 115 112 110 107 104 101 98 96 94 92 91 90 89 89 88 88 87 87 86 85 83 82 80 79 77 77 76 75 74 74 73 72 72 71 71 70 70 70 69 69 69 69 69 69
102 102 102 103 103 104 104 105 106 106 107 108 110 111 112 113 114 116 117 119 120 119 119 118 117 115 114 114 113 113 113 113 114 116 117 118 119 119 118 117 115 113 111 108 105 102 99 96 94 92 90 89 88 87 86 86 86 85 85 85 84 83 81 80 78 77 75 74 74 73 72 72 71 70 70 69 69 68 68 67 67 67 67 67 67 67
102 102 102 103 104 105 105 106 107 108 109 110 111 113 115 115 116 117 118 118 118 117 116 115 114 113 113 113 113 113 114 114 116 117 118 119 119 118 116 114 112 110 107 104 101 98 96 93 91 89 87 85 84 83 83 83 83 83 83 83 82 81 79 77 76 74 73 72 71 71 70 70 69 68 68 67 67 66 66 65 65 65 65 65 65 65
102 102 103 104 105 106 106 108 109 110 111 112 113 114 116 116 117 117 117 116 115 114 112 112 112 112 113 114 114 114 115 115 116 117 118 118 117 115 113 111 108 106 103 101 98 95 93 90 88 86 84 82 81 81 80 80 81 81 81 80 80 78 77 75 73 72 70 70 69 69 68 68 67 66 66 65 65 64 64 63 63 63 63 63 63 63
102 103 104 105 106 107 108 109 110 112 113 113 114 115 116 116 116 115 114 113 112 111 110 111 111 113 114 115 115 115 115 116 116 116 116 115 113 111 108 106 104 102 100 97 95 93 90 88 86 83 82 80 79 78 78 78 78 78 78 78 77 76 75 73 71 69 68 67 67 66 66 66 65 64 64 63 63 62 62 62 61 61 61 61 61 61
103 104 105 106 107 109 110 111 112 113 114 114 115 115 115 115 114 112 111 111 110 110 110 111 113 114 116 116 116 116 115 115 114 113 112 111 109 107 104 102 100 99 96 94 92 90 88 85 83 81 79 78 77 76 75 75 75 76 76 76 75 74 72 70 69 67 66 65 65 64 64 64 63 63 62 62 61 61 60 60 60 59 59 59 59 60
104 105 106 108 109 110 111 112 113 114 114 114 114 113 113 112 111 110 109 109 109 110 111 113 114 116 117 118 117 115 114 113 111 109 108 106 105 103 100 99 97 95 94 92 89 87 85 83 81 79 77 76 74 73 73 72 73 73 73 73 73 72 70 68 66 65 64 63 62 62 62 61 61 61 60 60 59 59 58 58 58 58 58 58 58 58
105 106 108 109 110 111 112 113 114 114 113 112 112 111 110 109 109 109 109 110 111 112 113 114 115 116 117 117 116 114 111 109 107 105 103 102 101 99 97 96 94 92 91 89 87 85 83 81 79 77 75 73 72 71 70 70 70 70 70 70 70 69 68 66 64 63 62 61 61 60 60 60 59 59 58 58 57 57 57 56 56 56 56 56 56 56
107 108 109 110 111 112 113 113 113 112 111 110 109 108 108 108 108 109 110 111 112 114 115 116 116 116 116 115 114 110 107 105 102 101 99 99 98 97 95 93 91 90 88 86 85 83 81 79 77 75 73 71 69 68 68 67 67 67 68 68 68 67 66 64 62 61 60 59 59 58 58 58 58 57 56 56 55 55 55 55 54 54 54 54 55 55
108 109 110 111 111 112 112 111 110 109 108 107 107 107 107 108 109 111 112 113 114 115 116 116 116 115 114 112 109 106 103 100 98 96 96 95 95 94 92 90 89 87 86 84 83 81 79 77 75 73 70 68 67 66 65 64 64 65 65 65 65 65 64 62 61 59 58 57 57 57 57 56 56 56 55 54 54 53 53 53 53 53 53 53 53 53
109 110 110 110 110 110 110 109 108 107 106 106 106 107 108 110 111 113 114 115 116 116 116 115 114 113 110 108 105 102 99 96 94 93 92 92 92 91 90 88 86 85 84 83 81 80 78 76 74 71 68 66 64 63 62 62 62 62 62 63 63 63 62 61 59 58 56 56 55 55 55 55 55 54 54 53 52 52 52 51 51 51 52 52 52 52
109 110 110 109 108 108 107 107 106 106 106 107 108 109 111 112 113 115 115 116 116 116 115 114 112 109 107 104 102 99 95 92 90 89 89 89 89 89 87 86 84 83 82 81 80 78 76 74 72 69 66 63 62 60 59 59 59 59 60 60 61 61 60 59 58 57 55 54 54 54 54 54 53 53 52 52 51 50 50 50 50 50 50 50 51 51
109 109 108 107 106 106 106 106 106 107 107 109 110 111 113 114 115 116 116 116 115 114 112 110 108 106 103 101 98 95 92 89 87 85 85 85 86 86 85 84 82 81 80 79 78 76 75 73 70 67 64 61 59 58 57 57 57 57 58 58 59 59 59 58 57 56 55 54 53 53 52 52 52 51 51 50 50 49 49 49 49 49 49 49 49 49
107 107 106 105 105 105 106 106 107 109 110 111 112 113 114 115 115 116 115 114 112 110 108 106 104 102 100 97 95 92 89 86 84 82 82 82 83 83 82 81 80 79 78 77 76 74 73 71 68 65 62 59 57 56 55 55 55 55 56 56 57 57 57 57 56 55 54 53 52 52 51 51 51 50 50 49 49 48 48 47 47 47 47 48 48 48
105 105 105 105 105 106 107 108 109 111 112 113 114 115 115 115 115 114 113 111 108 106 104 102 100 98 96 94 92 90 87 83 81 79 79 79 80 80 79 78 77 76 75 74 73 72 71 69 67 63 60 57 55 54 53 53 53 54 54 55 55 56 56 56 55 55 54 53 52 51 51 50 50 49 49 48 48 47 47 46 46 46 46 46 47 47
104 104 104 105 106 107 109 110 111 113 114 114 115 115 115 114 113 112 110 107 105 102 100 99 97 95 93 91 89 87 84 81 79 77 76 76 76 77 76 75 74 73 72 72 71 70 69 67 65 62 59 56 54 52 52 52 52 53 53 54 54 54 54 54 54 54 53 52 51 51 50 50 49 49 48 47 47 46 46 45 45 45 45 45 46 46
104 104 105 107 108 109 111 112 113 114 115 115 115 114 113 112 110 108 106 103 101 99 97 95 93 91 90 88 87 85 82 79 77 75 74 73 73 73 73 72 71 70 69 69 68 68 66 65 63 60 58 55 53 51 51 51 51 52 53 53 53 53 53 53 53 53 52 52 51 50 50 49 49 48 47 47 46 45 45 44 44 44 44 44 45 46
105 106 107 109 110 112 113 114 115 115 115 114 113 112 110 108 106 105 102 99 97 95 94 92 90 88 87 85 84 82 80 77 75 73 72 71 71 71 70 70 69 68 67 66 66 65 65 63 61 59 57 55 53 51 50 50 50 51 52 52 53 53 52 52 52 52 52 51 50 50 49 49 48 47 47 46 45 45 44 44 43 43 43 44 45 46
107 108 109 111 112 113 114 115 115 114 113 112 110 108 106 104 102 100 98 96 94 92 90 88 87 85 84 82 81 80 78 75 72 70 69 68 68 68 68 67 66 65 64 64 64 64 63 62 61 59 57 55 53 51 50 49 49 50 51 51 52 52 52 51 51 51 51 50 50 49 48 48 47 47 46 45 45 44 43 43 42 42 43 44 45 45
109 110 112 113 114 114 115 114 114 112 111 109 107 104 102 100 98 96 94 92 91 89 87 86 84 82 81 79 78 77 75 73 70 68 67 66 66 66 66 65 65 64 63 62 62 62 62 62 61 59 57 55 53 51 49 48 48 48 49 50 51 51 51 51 50 50 50 49 49 48 48 47 47 46 45 45 44 43 43 42 42 42 42 44 45 45
112 113 114 115 115 114 114 113 111 109 107 105 103 101 98 96 95 93 91 89 87 86 84 83 81 79 78 76 75 74 72 70 68 66 64 64 64 64 64 64 63 62 61 61 61 61 61 62 61 59 57 55 52 50 48 47 46 46 47 48 49 50 50 50 50 49 49 48 48 47 47 46 46 45 45 44 43 42 42 41 41 41 42 44 45 45
114 115 115 115 114 113 112 110 108 106 103 101 99 97 95 93 91 90 88 86 84 83 81 80 78 76 75 73 72 70 69 67 65 63 62 62 63 63 63 63 63 62 61 60 60 60 60 61 60 59 57 55 52 49 47 45 44 44 45 46 48 49 49 49 49 48 48 47 46 46 45 45 44 44 44 43 42 42 41 40 40 41 42 43 44 45
115 115 114 114 112 110 108 106 104 102 100 98 96 94 92 90 88 87 85 83 81 80 78 77 75 73 72 70 68 67 65 64 62 61 61 61 62 62 63 63 62 62 61 60 59 59 59 59 59 58 57 54 51 48 45 43 42 42 43 45 46 48 49 49 48 47 46 45 45 44 44 44 43 43 42 42 41 40 40 40 40 41 42 43 44 44
114 113 112 111 109 107 104 102 100 98 96 94 93 91 89 87 86 84 82 80 78 77 75 74 72 70 68 67 65 64 62 61 60 60 59 60 61 62 62 62 62 61 60 59 58 58 57 57 56 56 55 53 50 47 44 42 41 41 42 43 45 47 48 47 46 45 44 43 43 43 42 42 42 41 41 40 40 39 39 39 40 41 42 43 43 43
112 111 109 107 105 103 100 98 96 95 93 91 89 88 86 84 83 81 79 78 76 74 73 71 69 67 65 64 62 61 60 59 59 58 59 60 61 61 62 62 61 60 59 58 57 56 56 55 54 53 52 50 48 45 43 41 40 40 41 43 44 46 46 46 45 43 42 42 41 41 41 40 40 40 40 39 39 39 39 39 40 40 41 42 42 42
109 107 105 102 100 99 97 95 93 91 90 88 86 85 83 82 80 78 77 75 73 72 70 68 66 64 62 61 59 59 58 58 58 58 59 59 60 61 61 61 60 59 58 57 56 55 54 52 51 50 49 47 46 44 42 40 39 39 40 42 43 44 44 43 42 41 40 40 39 39 39 39 39 39 38 38 38 38 38 39 39 39 40 40 40 41
104 102 100 98 96 95 93 91 90 88 86 85 83 82 80 79 77 76 74 72 70 69 67 66 64 62 60 59 57 57 57 57 57 58 58 59 60 60 60 60 59 57 56 55 53 52 51 50 49 48 46 45 43 42 40 39 38 38 39 40 41 41 41 41 40 39 38 38 37 37 37 37 37 37 37 37 37 37 37 38 38 38 38 39 39 39
100 98 96 94 93 91 89 88 86 85 83 82 80 79 78 76 75 73 71 69 68 66 65 64 62 61 59 57 56 55 55 56 56 57 57 58 59 59 59 58 57 56 54 53 51 50 49 48 47 45 44 43 41 40 39 38 37 37 38 38 38 39 38 38 38 37 37 36 36 36 36 36 36 36 36 36 36 36 36 36 37 37 37 37 37 37
96 94 92 91 89 88 86 84 83 81 80 79 78 76 75 73 72 70 68 66 65 64 63 62 61 60 59 57 56 55 55 54 55 55 55 56 57 57 56 56 55 54 52 50 49 48 46 45 44 43 42 41 40 38 37 36 36 36 36 36 36 36 36 36 36 36 35 35 34 34 34 35 35 35 34 34 34 34 35 35 35 35 35 35 34 34
92 90 89 87 85 84 82 81 80 79 77 76 75 73 72 70 69 67 65 64 63 62 61 61 61 60 59 58 57 55 54 53 53 53 53 53 54 54 54 53 52 51 50 48 47 45 44 43 42 41 40 39 38 37 35 34 34 34 34 33 33 34 34 34 34 34 34 33 33 33 33 33 33 33 33 33 33 33 33 33 33 33 32 32 32 32
88 87 85 84 82 81 79 78 77 76 74 73 72 70 69 67 66 64 63 62 61 61 60 60 60 60 59 58 57 56 54 52 51 50 50 51 51 51 51 51 50 49 48 46 45 43 42 41 40 39 38 37 36 35 33 33 32 32 32 31 32 32 33 33 33 33 32 32 31 31 31 31 31 31 31 31 31 31 31 31 30 30 30 30 30 30
85 83 82 80 79 78 76 75 74 73 71 70 68 67 65 64 63 62 62 61 61 61 60 61 61 61 60 59 58 56 54 51 49 48 48 48 48 48 48 48 48 47 45 44 43 41 39 38 37 37 36 35 34 33 31 31 30 30 30 30 30 31 31 32 31 31 30 30 30 29 29 29 28 28 29 29 29 29 29 28 28 28 28 28 29 29
81 80 79 77 76 75 74 73 71 70 68 66 65 63 62 61 61 61 61 61 61 61 61 61 61 61 60 59 58 56 54 51 49 47 46 45 45 46 46 46 45 44 43 42 40 39 37 36 35 34 33 32 31 30 29 29 28 28 28 29 29 30 30 30 30 29 28 28 27 27 26 26 26 26 26 27 27 26 26 26 26 26 27 27 27 28
78 77 76 75 74 72 71 70 68 67 65 63 62 60 59 59 59 59 60 60 60 61 61 60 60 59 59 58 57 55 53 51 49 46 44 43 43 43 43 43 43 42 40 39 38 36 35 33 32 32 31 30 29 28 28 27 27 27 27 27 28 28 28 28 27 27 26 25 25 25 24 24 24 24 24 24 24 24 24 24 25 25 26 26 26 26
75 74 73 72 71 70 68 67 65 64 62 61 59 59 58 58 58 59 59 60 60 60 59 59 58 57 56 55 54 53 52 51 48 46 44 42 41 41 41 41 40 39 38 36 35 33 32 31 30 29 29 28 27 26 26 26 25 25 26 26 26 25 25 25 25 24 24 23 23 22 22 22 22 22 22 22 22 23 23 23 24 24 24 25 25 25
73 72 71 69 68 67 65 64 62 61 60 59 58 58 58 58 58 59 59 59 59 59 58 57 56 55 54 53 52 51 50 49 47 45 43 41 39 38 38 38 38 37 35 34 33 31 30 29 28 27 26 26 25 24 24 24 24 24 24 23 23 23 23 22 22 22 21 21 20 20 20 20 20 20 21 21 21 21 22 22 23 23 23 23 24 24
70 69 68 66 65 64 62 61 60 59 58 58 58 58 58 58 58 58 58 58 57 57 56 55 54 53 52 51 50 49 48 47 46 44 41 39 37 36 36 35 35 34 33 31 30 29 28 27 26 25 24 23 23 22 22 22 22 22 21 21 21 20 20 20 20 19 19 19 18 18 18 18 19 19 19 20 20 20 21 21 22 22 22 22 22 23
67 66 65 64 62 61 60 59 58 58 58 58 58 58 58 58 58 58 57 56 55 54 53 52 51 50 49 49 48 47 46 45 43 41 40 37 36 34 33 32 32 31 30 29 28 27 26 25 24 23 22 21 21 21 20 20 20 19 19 18 18 18 18 18 17 17 17 17 17 17 17 17 18 18 18 19 19 19 20 20 20 21 21 21 21 21
64 63 62 61 60 59 58 57 57 57 58 58 58 58 58 58 57 57 56 55 53 52 51 50 49 48 47 47 46 45 43 42 40 39 37 35 34 32 31 30 29 28 27 26 25 25 24 23 22 21 20 19 19 18 18 18 17 17 16 16 16 16 16 16 16 15 15 15 15 16 16 16 17 17 18 18 18 18 19 19 19 19 19 20 20 20
61 60 59 58 57 57 57 57 57 57 58 58 59 58 58 57 56 55 54 53 51 50 49 48 47 46 46 45 43 42 41 39 37 36 34 33 31 30 29 27 27 26 25 24 23 22 21 20 20 19 18 17 17 16 16 16 15 15 14 14 14 14 14 14 14 14 14 14 15 15 15 16 16 16 17 17 17 17 17 18 18 18 18 18 19 19
58 57 57 56 56 56 56 56 57 57 58 58 58 58 57 56 55 54 52 51 50 49 48 47 46 44 43 42 41 40 38 36 35 33 32 30 29 28 27 25 24 23 22 22 21 20 19 18 17 16 16 15 15 14 14 14 13 13 13 13 13 13 13 13 13 13 13 13 14 14 14 15 15 15 15 15 16 16 16 16 16 17 17 17 17 18
Wind_Direction
286 286 287 287 287 287 287 287 287 287 288 288 288 288 288 288 288 288 288 288 289 289 289 289 290 290 290 291 291 292 292 292 293 293 293 294 294 294 294 293 293 293 292 292 291 291 290 290 290 289 289 289 288 288 287 287 287 286 286 285 285 284 284 283 283 282 282 282 281 281 280 280 279 278 277 277 276 275 274 273 272 271 271 270 269 268
286 287 287 287 287 287 287 287 287 288 288 288 288 288 288 288 289 289 289 289 289 289 290 290 290 291 291 291 292 292 293 293 294 294 294 294 294 294 294 294 293 293 292 292 292 291 291 290 290 290 289 289 289 289 288 288 287 287 287 286 286 285 284 284 283 283 282 282 281 281 280 280 279 278 277 276 275 275 274 273 272 271 270 269 269 268
287 287 287 287 287 287 287 288 288 288 288 288 288 289 289 289 289 289 289 290 290 290 290 291 291 291 292 292 293 293 293 294 294 294 294 294 294 294 294 294 293 293 293 292 292 291 291 291 291 290 290 290 290 289 289 289 288 288 287 287 286 285 285 284 284 283 283 282 282 281 280 280 279 278 277 276 275 274 273 272 272 271 270 269 268 268
287 287 287 287 287 287 288 288 288 288 288 289 289 289 289 289 289 290 290 290 291 291 291 292 292 292 293 293 294 294 294 294 295 295 295 295 295 295 294 294 294 293 293 292 292 292 292 291 291 291 291 291 290 290 290 289 289 288 288 287 286 286 285 284 284 283 283 283 282 281 281 280 279 278 277 276 275 274 273 272 272 271 270 269 268 268
287 287 287 287 287 288 288 288 288 289 289 289 289 289 290 290 290 290 291 291 291 292 292 292 293 293 294 294 294 295 295 295 295 295 295 295 295 295 295 294 294 294 293 293 293 292 292 292 292 292 292 291 291 291 290 290 289 288 288 287 286 286 285 285 284 284 283 283 282 281 281 280 279 278 277 276 275 274 273 273 272 271 270 269 268 267
287 287 287 287 288 288 288 289 289 289 289 290 290 290 290 290 291 291 291 292 292 293 293 293 294 294 295 295 295 295 295 296 296 296 296 296 295 295 295 294 294 294 293 293 293 293 293 293 293 292 292 292 291 291 290 290 289 289 288 287 287 286 285 285 285 284 284 283 282 282 281 280 279 278 277 276 275 274 274 273 272 271 270 269 268 267
287 287 288 288 288 288 289 289 289 290 290 290 290 291 291 291 291 292 292 293 293 294 294 295 295 295 295 296 296 296 296 296 296 296 296 296 296 295 295 295 294 294 294 294 293 293 293 293 293 293 293 292 292 291 291 290 289 289 288 287 287 286 286 285 285 284 284 283 283 282 281 280 279 278 277 277 276 275 274 273 272 271 270 269 268 267
288 288 288 288 289 289 289 290 290 290 290 291 291 291 292 292 292 293 293 294 294 295 295 296 296 296 296 296 296 296 296 296 296 296 296 296 296 295 295 295 295 294 294 294 294 294 294 293 293 293 293 292 292 291 291 290 289 289 288 287 287 286 286 286 285 285 284 284 283 282 281 280 279 279 278 277 276 275 274 273 272 271 270 269 268 267
288 289 289 289 290 290 290 291 291 291 291 292 292 292 293 293 294 294 295 295 296 296 296 297 297 297 296 296 296 296 296 297 297 297 296 296 296 296 296 295 295 295 295 294 294 294 294 294 293 293 293 292 292 291 291 290 289 289 288 288 287 286 286 286 285 285 285 284 283 282 281 281 280 279 278 277 276 275 274 273 272 271 270 269 268 267
289 290 290 290 291 291 291 292 292 292 292 293 293 294 294 295 295 296 296 296 297 297 297 297 297 297 297 297 297 297 297 297 297 297 297 297 296 296 296 296 295 295 295 295 294 294 294 294 293 293 293 292 292 291 291 290 289 289 288 288 287 287 286 286 286 285 285 284 283 283 282 281 280 279 278 277 276 275 274 273 272 271 270 269 268 267
290 291 291 291 292 292 292 292 293 293 294 294 295 295 295 296 296 297 297 297 297 297 297 297 297 297 297 297 297 297 297 297 297 297 297 297 297 296 296 296 296 295 295 295 294 294 294 294 293 293 293 292 292 291 291 290 289 289 288 287 287 287 286 286 286 285 285 284 283 282 281 281 280 279 278 277 276 275 274 273 272 271 270 269 268 267
291 292 292 292 293 293 293 293 294 294 295 295 295 296 296 296 297 297 297 297 297 297 297 297 297 297 297 297 297 297 298 298 298 298 298 298 297 297 297 296 296 296 295 295 294 294 294 294 293 293 293 292 292 291 291 290 289 289 288 287 287 287 286 286 286 285 285 284 283 282 281 280 279 278 277 276 275 274 273 273 272 271 270 269 268 267
292 292 293 293 293 293 294 294 295 295 295 296 296 296 297 297 297 297 297 297 297 297 297 297 297 297 297 297 297 298 298 298 298 298 298 298 298 297 297 297 296 296 295 295 295 294 294 294 293 293 293 292 292 291 291 290 289 288 288 287 287 287 286 286 286 285 285 284 283 282 281 280 279 278 277 276 275 274 273 272 271 270 269 268 267 266
293 293 293 293 294 294 294 295 295 296 296 296 297 297 297 297 297 297 297 297 297 297 297 297 298 298 298 298 298 298 298 299 299 299 299 298 298 297 297 297 296 296 295 295 295 294 294 294 294 293 293 292 292 291 290 290 289 288 288 287 287 286 286 286 285 285 284 283 282 281 280 280 279 278 277 276 275 274 273 272 271 270 269 268 267 266
293 294 294 294 294 295 295 296 296 296 297 297 297 297 297 297 297 297 297 297 297 298 298 298 298 298 298 298 298 299 299 299 299 299 299 298 298 297 297 297 296 296 295 295 295 295 294 294 294 293 293 292 292 291 290 289 289 288 287 287 286 286 286 286 285 285 284 283 282 281 280 279 278 277 276 276 275 274 273 271 270 269 268 267 266 265
294 294 294 295 295 296 296 296 297 297 297 297 298 298 298 298 298 298 298 298 298 298 299 299 299 299 299 299 299 299 299 300 300 299 299 299 298 297 297 297 296 296 295 295 295 295 295 294 294 294 293 293 292 291 290 289 288 287 287 286 286 286 286 285 285 284 283 282 281 280 279 279 278 277 276 275 274 273 272 271 270 269 268 267 266 265
295 295 295 296 296 296 296 297 297 297 297 298 298 298 298 298 298 298 298 299 299 299 299 299 300 300 300 300 299 299 300 300 300 300 299 299 298 297 297 296 296 296 296 295 295 295 295 294 294 294 293 293 292 291 290 289 288 287 286 286 286 285 285 285 284 284 283 282 281 280 279 278 277 276 275 275 274 273 272 271 270 269 268 267 266 264
295 296 296 296 296 297 297 297 297 298 298 298 298 298 299 299 299 299 299 299 300 300 300 300 300 300 300 300 300 300 300 300 300 300 299 299 298 297 297 297 296 296 296 295 295 295 295 294 294 294 293 293 292 291 290 289 288 287 286 285 285 285 285 284 284 283 282 281 280 279 278 277 277 276 275 274 273 273 272 271 270 269 267 266 265 264
296 296 296 297 297 297 297 298 298 298 298 299 299 299 299 299 300 300 300 300 300 301 301 301 301 300 300 300 300 300 300 300 300 300 300 299 298 297 297 297 296 296 296 295 295 295 294 294 294 293 293 292 292 291 289 288 287 286 286 285 285 284 284 284 283 282 281 281 280 279 278 277 276 275 275 274 273 272 271 270 269 268 267 266 265 264
296 297 297 297 297 298 298 298 298 299 299 299 300 300 300 300 301 301 301 301 301 301 301 301 301 301 301 301 300 300 300 301 301 300 300 299 298 297 297 297 297 296 296 295 295 295 294 294 293 293 293 292 291 290 289 288 287 286 285 285 284 284 284 283 283 282 281 280 279 278 277 277 276 275 274 273 273 272 271 270 269 268 267 266 265 264
297 297 298 298 298 298 299 299 299 300 300 300 301 301 301 301 301 302 302 302 302 302 302 302 302 301 301 301 301 301 301 301 301 301 300 299 298 298 297 297 297 296 296 296 295 295 294 294 293 293 293 292 291 290 289 288 286 285 285 284 284 284 283 283 282 282 280 279 278 277 277 276 275 275 274 273 272 271 270 270 269 268 267 266 265 264
298 298 299 299 299 299 300 300 300 301 301 301 302 302 302 302 302 302 302 302 302 302 302 302 302 302 301 301 301 301 301 301 301 301 300 299 298 298 297 297 297 296 296 296 295 295 294 294 294 293 293 292 291 290 289 287 286 285 284 284 283 283 283 283 282 281 280 279 278 277 276 275 275 274 273 272 272 271 270 269 268 267 266 266 265 264
299 299 299 300 300 300 301 301 301 302 302 302 303 303 303 303 303 303 303 303 303 303 303 302 302 302 301 301 301 301 301 301 301 301 300 299 298 298 297 297 297 296 296 296 295 295 294 294 294 293 293 292 291 290 288 287 286 285 284 283 283 283 282 282 282 281 280 279 278 276 275 275 274 273 273 272 271 270 269 268 267 267 266 265 265 264
300 300 300 301 301 301 302 302 302 303 303 303 303 303 303 303 303 303 303 303 303 303 303 302 302 302 302 301 301 301 301 301 301 301 300 299 298 297 297 297 296 296 296 295 295 295 294 294 294 294 293 292 291 290 288 287 286 285 284 283 282 282 282 281 281 280 280 278 277 276 275 274 273 273 272 271 270 269 268 267 267 266 265 265 264 264
300 301 301 302 302 302 303 303 303 303 303 304 303 303 304 303 303 303 303 303 303 303 303 302 302 302 302 302 301 301 301 301 301 301 300 299 297 297 296 296 296 295 295 295 295 294 294 294 294 294 293 292 291 290 289 287 286 285 284 283 282 282 281 281 280 280 279 278 277 276 275 274 273 272 271 270 269 268 268 267 266 265 265 264 264 263
301 302 302 303 303 303 304 304 304 304 304 304 304 304 304 304 304 304 303 303 303 303 303 302 302 302 302 302 302 301 301 301 301 301 300 298 297 296 296 295 295 295 294 294 294 294 294 294 294 294 293 292 291 290 289 288 286 285 284 283 282 281 280 280 279 279 278 277 276 275 274 273 272 271 270 269 269 268 267 266 265 265 264 264 263 263
302 303 303 304 304 304 304 304 304 304 304 304 304 304 304 304 304 304 303 303 303 303 303 303 302 302 302 302 302 302 302 302 301 301 299 298 297 296 295 295 294 294 294 294 294 294 293 293 293 293 293 292 291 290 289 288 287 285 284 283 282 281 280 279 278 278 277 276 276 275 274 273 272 271 270 269 268 267 266 266 265 265 264 264 263 263
303 304 304 304 304 304 304 304 304 304 304 304 304 304 304 304 304 304 303 303 303 303 303 303 303 302 302 302 302 302 302 302 301 301 299 298 297 296 295 295 294 294 294 294 294 294 293 293 294 293 293 292 292 290 289 288 287 285 284 283 281 280 279 278 277 277 276 275 274 274 273 272 271 270 269 268 267 267 266 265 265 264 264 263 263 263
304 305 305 305 305 304 304 304 304 304 304 304 304 304 304 304 304 304 303 303 303 303 303 303 303 303 303 302 302 302 302 301 301 300 299 298 296 295 295 294 294 294 294 294 294 294 294 294 294 293 293 293 292 291 289 288 287 285 284 282 281 279 278 277 276 275 274 274 273 273 272 271 271 270 269 268 267 266 265 265 264 264 264 263 263 263
305 305 305 305 305 305 305 305 305 305 305 305 304 304 304 304 304 303 303 303 303 303 303 303 303 303 303 303 302 302 301 301 301 300 299 298 296 295 295 294 294 294 294 294 294 294 294 294 294 293 293 292 292 291 290 289 287 285 284 282 280 278 277 276 275 274 273 273 272 272 271 271 270 269 268 268 267 266 265 265 264 264 263 263 263 263
305 305 305 305 305 305 305 305 305 305 305 305 304 304 304 304 304 304 303 303 303 303 303 303 303 303 303 303 302 302 301 301 300 300 299 297 296 296 295 295 294 294 294 294 294 294 294 294 294 294 293 293 292 291 290 288 287 285 283 281 279 277 276 274 273 273 272 272 271 271 271 270 269 269 268 267 267 266 265 264 264 263 263 263 263 263
305 305 305 305 305 305 305 305 305 305 305 305 305 304 304 304 304 304 304 304 304 304 304 304 303 303 303 302 302 301 301 300 300 299 298 297 296 296 295 295 295 295 295 295 294 294 294 294 294 294 293 293 292 291 289 288 286 284 282 280 278 276 275 273 272 272 271 271 271 271 270 270 269 269 268 267 266 265 264 264 263 262 262 262 262 263
305 305 305 305 305 305 305 305 305 305 305 305 305 304 304 304 304 304 304 304 304 304 304 304 304 303 303 302 301 301 300 300 300 299 298 297 297 296 296 295 295 295 295 295 295 294 294 293 293 293 293 293 292 291 289 287 285 283 280 278 276 275 274 273 272 272 271 271 271 271 270 269 269 268 267 267 266 265 264 263 262 262 262 262 263 263
305 305 305 305 305 305 305 305 305 305 305 305 305 304 304 304 304 304 304 305 305 305 304 304 303 303 302 302 301 301 300 300 299 299 298 298 297 296 296 295 295 296 295 295 295 294 294 293 293 293 292 292 292 290 289 287 284 281 279 276 274 273 273 273 272 272 272 271 271 270 270 269 269 268 267 266 265 264 263 262 261 261 261 262 263 263
305 305 305 305 305 305 305 305 305 305 305 305 305 305 304 305 305 305 305 305 305 305 304 304 303 302 302 302 301 301 300 300 300 300 299 298 298 297 296 296 296 296 296 296 295 294 294 293 293 292 292 291 291 290 288 286 283 280 277 275 273 273 272 273 273 273 272 272 271 270 269 269 268 267 266 265 264 263 262 261 261 261 261 262 263 264
305 305 305 305 305 305 305 305 305 305 305 305 305 305 305 305 305 305 305 305 305 305 304 303 303 302 302 301 301 301 301 301 301 301 300 299 298 298 297 297 297 296 296 296 295 295 294 293 293 292 291 291 290 289 287 284 282 279 276 274 273 273 273 273 273 273 273 272 271 270 269 268 267 266 265 264 263 262 261 261 261 261 261 262 263 264
306 306 306 305 305 305 305 305 305 305 305 305 305 305 305 305 306 306 306 306 305 305 304 303 302 302 302 301 301 301 301 302 302 302 301 300 299 298 298 297 297 297 296 296 296 295 294 293 293 292 291 290 289 288 286 283 281 278 276 274 274 274 274 274 274 273 272 271 270 269 268 267 266 265 264 263 262 262 261 261 261 261 262 262 263 264
306 306 305 305 305 305 305 305 305 305 305 305 305 306 306 306 306 306 306 306 305 305 304 304 303 302 302 302 302 302 303 303 303 302 301 300 299 299 298 298 297 297 297 296 296 295 294 294 293 292 291 289 288 286 285 283 281 278 276 275 274 274 274 274 273 272 271 270 269 267 266 265 264 264 263 262 262 262 261 261 261 262 262 263 263 264
306 306 305 305 305 305 305 305 305 305 306 306 306 306 307 307 307 307 306 306 306 305 305 304 304 304 303 304 304 304 304 304 303 303 302 301 300 299 298 298 298 297 297 296 296 295 294 294 293 292 291 289 287 286 284 283 281 279 277 276 275 274 273 273 272 271 270 269 267 266 265 265 264 263 263 262 262 262 262 262 262 262 262 263 263 264
306 306 305 305 305 305 305 305 306 306 306 306 307 307 307 307 307 307 307 306 306 305 305 305 305 305 305 305 305 305 305 305 304 303 302 301 300 299 298 298 298 297 297 296 296 295 295 294 293 292 290 289 287 286 284 283 281 279 278 276 275 274 272 271 270 269 268 267 267 266 265 264 264 263 263 263 262 262 262 262 262 262 263 263 263 263
306 306 306 306 306 306 306 306 306 306 307 307 307 308 308 308 308 308 307 307 306 306 306 306 306 306 306 306 306 306 306 305 304 303 302 301 300 299 299 298 298 297 297 296 296 296 295 294 293 292 290 289 287 286 284 283 281 279 277 275 274 272 271 269 269 268 268 267 267 266 265 265 264 264 263 263 262 262 262 262 262 263 263 263 262 262
306 306 306 306 306 306 306 306 307 307 307 308 308 308 309 309 309 308 308 308 307 307 307 307 307 308 308 308 308 307 307 306 305 304 303 302 301 300 299 298 298 297 297 297 297 296 295 294 293 291 290 288 287 286 284 282 280 278 276 274 272 271 270 269 269 268 268 267 267 266 266 265 264 264 263 262 262 262 262 262 262 262 262 261 261 261
306 306 306 306 306 306 307 307 307 308 308 308 309 309 309 309 309 309 308 308 308 308 308 309 309 309 309 309 309 309 308 307 306 305 304 303 302 301 300 299 298 298 298 297 297 297 296 294 293 291 289 288 286 285 283 281 279 277 275 273 271 270 269 269 269 269 269 268 268 267 266 265 264 263 262 262 262 262 261 261 261 260 260 259 259 259
306 306 306 307 307 307 307 308 308 308 309 309 310 310 310 310 309 309 309 309 309 309 309 310 310 310 310 310 310 309 308 308 307 306 305 305 303 302 301 300 299 298 298 298 298 297 296 294 292 290 289 287 286 284 282 280 278 276 274 272 271 270 270 270 270 270 270 269 268 266 265 264 263 262 261 261 260 260 260 259 259 258 257 257 256 256
306 307 307 307 308 308 308 309 309 310 310 310 310 310 310 310 310 309 309 309 309 310 310 310 311 311 311 310 310 310 309 309 308 308 307 306 305 303 301 300 299 299 299 298 298 297 296 294 292 290 288 287 285 283 281 279 277 275 274 272 272 271 271 271 271 270 269 268 267 266 264 263 262 261 260 259 259 258 257 257 256 255 255 255 254 254
307 307 308 308 309 309 309 310 310 311 311 311 311 311 311 310 310 310 310 310 310 311 311 311 311 311 311 311 310 310 309 309 309 309 309 308 306 304 302 301 300 300 299 299 298 296 295 293 291 290 288 287 285 282 280 278 277 275 274 273 273 272 272 272 271 270 269 267 266 264 263 262 260 259 258 257 256 256 255 254 254 254 253 253 253 253
308 308 309 309 310 310 311 311 312 312 312 312 312 311 311 311 311 311 311 311 312 312 312 312 312 312 311 311 311 311 310 310 310 310 310 309 307 305 303 301 300 300 299 298 297 296 294 293 291 289 288 286 284 282 280 278 277 276 275 274 274 273 272 271 270 268 267 265 264 262 261 260 258 257 256 254 254 253 253 253 253 253 253 253 253 254
309 309 310 310 311 311 312 312 313 313 313 313 312 312 312 311 312 312 312 313 313 313 313 313 313 312 312 312 312 311 311 311 311 311 310 309 307 305 303 302 301 300 299 298 297 295 294 292 291 289 287 286 284 282 280 279 278 276 275 275 274 272 271 269 268 266 265 263 262 261 259 257 255 254 253 252 252 252 252 252 253 253 254 254 255 255
310 310 311 311 312 313 313 314 314 314 313 313 313 312 312 313 313 313 314 314 314 314 314 314 313 313 313 313 313 312 312 312 311 311 310 309 307 306 304 302 301 300 299 298 297 295 294 292 291 289 288 286 284 282 281 280 279 277 276 274 273 271 269 267 266 264 263 261 260 258 257 255 254 252 252 251 251 251 252 253 254 255 255 256 257 257
311 312 312 313 313 314 314 315 315 314 314 313 313 313 314 314 314 315 315 316 316 315 315 315 315 315 315 315 314 313 313 313 312 311 310 309 307 306 304 303 301 300 299 298 296 295 294 293 291 290 288 286 284 283 282 281 279 277 275 273 270 268 266 264 263 261 260 258 257 256 254 253 253 252 252 251 252 252 253 254 255 256 257 258 258 259
312 313 313 314 314 315 315 315 315 315 314 314 314 314 315 315 316 316 317 317 317 317 316 316 316 317 316 316 315 314 314 313 312 311 310 309 308 306 305 303 302 300 299 298 297 296 294 293 292 290 289 287 286 284 282 280 279 276 273 270 268 265 263 261 259 258 256 255 254 253 252 252 253 253 253 253 254 255 256 257 258 259 259 259 260 260
Height
10459 10456 10453 10451 10448 10444 10440 10437 10435 10432 10429 10425 10423 10421 10418 10414 10411 10409 10406 10403 10400 10397 10394 10391 10387 10384 10381 10377 10374 10371 10367 10364 10362 10359 10356 10352 10349 10346 10342 10338 10334 10331 10327 10324 10320 10317 10314 10311 10307 10304 10301 10297 10294 10290 10286 10282 10278 10274 10271 10266 10262 10259 10256 10253 10251 10249 10247 10246 10246 10244 10244 10242 10241 10240 10239 10237 10237 10236 10234 10233 10232 10232 10231 10231 10230 10230
10451 10448 10446 10443 10440 10437 10432 10429 10426 10424 10421 10418 10415 10412 10410 10407 10404 10400 10397 10395 10392 10389 10386 10382 10379 10375 10371 10368 10364 10361 10358 10354 10351 10348 10344 10341 10337 10334 10330 10326 10322 10319 10315 10311 10308 10305 10302 10299 10296 10292 10289 10285 10281 10277 10273 10269 10265 10261 10257 10253 10249 10246 10242 10241 10238 10237 10236 10234 10233 10232 10232 10231 10229 10228 10227 10226 10224 10224 10222 10221 10221 10220 10219 10219 10219 10219
10442 10440 10437 10434 10432 10429 10424 10421 10417 10416 10414 10411 10407 10404 10402 10399 10396 10392 10389 10386 10383 10379 10376 10373 10370 10366 10362 10358 10354 10351 10348 10344 10341 10337 10333 10329 10326 10322 10318 10314 10311 10307 10303 10299 10296 10293 10289 10286 10283 10280 10276 10272 10269 10264 10260 10256 10252 10247 10244 10240 10236 10233 10230 10228 10226 10225 10224 10223 10222 10221 10220 10219 10217 10216 10215 10214 10213 10212 10211 10210 10209 10209 10209 10209 10209 10209
10436 10432 10428 10426 10423 10420 10416 10413 10410 10407 10405 10403 10400 10397 10394 10391 10387 10384 10381 10378 10374 10371 10367 10363 10361 10357 10352 10348 10344 10341 10337 10334 10329 10326 10322 10318 10314 10311 10306 10302 10299 10295 10291 10287 10284 10281 10277 10274 10271 10267 10264 10260 10256 10252 10247 10243 10239 10235 10231 10227 10224 10221 10218 10216 10215 10214 10213 10212 10211 10210 10209 10207 10206 10205 10204 10203 10202 10201 10200 10199 10199 10199 10199 10198 10198 10198
10427 10424 10421 10417 10415 10411 10408 10405 10402 10400 10397 10394 10392 10389 10386 10382 10379 10376 10372 10369 10366 10362 10358 10354 10350 10346 10342 10337 10333 10329 10326 10322 10319 10314 10311 10307 10303 10299 10295 10291 10287 10283 10279 10276 10272 10269 10266 10262 10259 10256 10252 10247 10243 10239 10235 10231 10226 10222 10219 10215 10212 10209 10207 10205 10204 10203 10202 10202 10201 10199 10198 10197 10196 10194 10193 10192 10191 10191 10190 10189 10189 10189 10188 10188 10188 10189
10419 10416 10413 10410 10407 10403 10400 10397 10394 10392 10389 10386 10384 10381 10379 10375 10371 10367 10364 10360 10356 10353 10349 10344 10340 10336 10331 10327 10322 10319 10315 10312 10308 10304 10300 10296 10292 10288 10284 10279 10275 10271 10267 10263 10260 10257 10254 10251 10247 10244 10240 10236 10231 10227 10222 10219 10215 10211 10207 10204 10201 10198 10196 10194 10194 10193 10192 10191 10191 10189 10188 10186 10185 10184 10183 10182 10181 10181 10180 10179 10179 10179 10179 10179 10179 10179
10411 10408 10406 10402 10399 10395 10392 10389 10386 10384 10381 10378 10375 10372 10370 10367 10364 10359 10356 10351 10347 10342 10339 10334 10330 10324 10320 10316 10312 10307 10304 10301 10297 10294 10289 10285 10281 10277 10272 10268 10264 10259 10255 10251 10248 10245 10242 10239 10236 10232 10229 10224 10220 10216 10211 10207 10204 10200 10197 10193 10190 10187 10186 10184 10184 10183 10182 10182 10181 10179 10178 10176 10175 10174 10173 10172 10171 10171 10170 10170 10169 10169 10169 10169 10169 10170
10402 10399 10396 10394 10391 10387 10383 10381 10378 10376 10374 10370 10366 10363 10361 10357 10354 10351 10347 10343 10338 10333 10328 10324 10319 10313 10308 10304 10301 10297 10294 10290 10287 10283 10279 10274 10269 10265 10261 10256 10252 10247 10243 10239 10236 10233 10231 10227 10225 10221 10217 10213 10209 10205 10201 10197 10193 10189 10186 10183 10180 10177 10176 10175 10174 10174 10173 10172 10171 10169 10168 10167 10166 10164 10164 10162 10162 10161 10161 10161 10161 10160 10160 10160 10160 10161
10395 10391 10387 10384 10382 10379 10375 10371 10368 10367 10366 10363 10359 10355 10352 10348 10344 10339 10336 10332 10328 10323 10319 10314 10308 10302 10296 10292 10289 10287 10284 10281 10277 10272 10269 10264 10259 10253 10249 10244 10240 10235 10231 10227 10224 10221 10219 10217 10214 10211 10207 10203 10199 10195 10191 10187 10183 10179 10176 10173 10171 10168 10167 10166 10165 10164 10164 10163 10162 10160 10159 10157 10156 10155 10154 10154 10153 10152 10152 10151 10151 10151 10151 10151 10151 10152
10387 10383 10379 10376 10372 10371 10367 10364 10359 10356 10355 10353 10350 10346 10343 10340 10336 10330 10324 10319 10316 10312 10309 10304 10298 10292 10287 10281 10277 10276 10274 10271 10267 10262 10257 10252 10247 10242 10237 10232 10227 10223 10219 10216 10212 10210 10208 10206 10203 10200 10197 10193 10189 10186 10182 10177 10174 10170 10167 10164 10161 10159 10157 10157 10156 10156 10155 10154 10152 10151 10149 10148 10147 10146 10146 10145 10144 10144 10143 10143 10142 10142 10142 10142 10143 10143
10377 10374 10371 10367 10364 10361 10359 10356 10352 10349 10346 10343 10339 10336 10332 10330 10327 10324 10317 10311 10304 10300 10297 10292 10287 10282 10278 10273 10268 10265 10262 10261 10257 10252 10246 10240 10235 10230 10226 10221 10216 10211 10207 10204 10201 10199 10197 10196 10193 10190 10187 10184 10181 10177 10173 10169 10164 10161 10157 10154 10152 10151 10149 10149 10148 10147 10147 10146 10144 10142 10141 10139 10139 10137 10137 10136 10136 10136 10135 10135 10134 10134 10134 10134 10135 10135
10369 10366 10363 10359 10356 10352 10349 10346 10343 10341 10337 10335 10331 10326 10322 10318 10316 10314 10310 10303 10296 10291 10287 10282 10277 10271 10267 10264 10260 10256 10253 10251 10246 10241 10234 10228 10222 10217 10213 10209 10204 10199 10196 10193 10191 10189 10187 10186 10183 10180 10177 10174 10172 10168 10164 10160 10156 10152 10148 10146 10143 10142 10141 10141 10140 10139 10139 10137 10136 10134 10132 10131 10130 10129 10129 10128 10128 10127 10127 10127 10127 10126 10126 10127 10127 10127
10361 10357 10355 10351 10347 10344 10341 10338 10334 10331 10328 10326 10322 10318 10313 10308 10305 10302 10299 10293 10287 10282 10279 10274 10267 10261 10256 10253 10250 10247 10244 10241 10236 10231 10224 10216 10210 10205 10201 10197 10192 10187 10184 10181 10179 10178 10177 10176 10173 10171 10169 10166 10163 10159 10156 10151 10147 10143 10140 10137 10135 10134 10133 10132 10132 10131 10131 10129 10127 10126 10124 10123 10122 10122 10121 10121 10120 10120 10119 10119 10119 10119 10119 10119 10119 10119
10352 10349 10346 10342 10339 10336 10333 10330 10326 10322 10318 10316 10313 10309 10305 10299 10295 10291 10288 10282 10277 10272 10269 10266 10259 10252 10246 10242 10239 10237 10235 10231 10226 10220 10214 10206 10199 10194 10190 10186 10181 10176 10173 10171 10169 10167 10166 10165 10163 10161 10159 10157 10154 10151 10147 10143 10139 10135 10131 10129 10127 10126 10125 10124 10124 10124 10122 10121 10120 10118 10116 10116 10114 10114 10114 10113 10112 10112 10112 10112 10112 10112 10112 10112 10112 10112
10345 10341 10338 10334 10331 10327 10324 10321 10317 10314 10309 10306 10303 10300 10296 10290 10285 10281 10277 10273 10267 10263 10259 10255 10249 10243 10236 10231 10228 10227 10226 10222 10216 10209 10202 10195 10188 10183 10179 10176 10171 10167 10164 10161 10159 10157 10156 10155 10154 10152 10151 10149 10146 10142 10139 10135 10131 10127 10124 10121 10119 10118 10117 10117 10117 10116 10115 10114 10112 10111 10109 10108 10107 10107 10106 10106 10106 10105 10105 10105 10105 10105 10105 10105 10105 10105
10337 10334 10330 10326 10322 10319 10315 10312 10309 10304 10301 10297 10293 10289 10285 10280 10275 10271 10267 10262 10258 10254 10249 10244 10239 10233 10226 10219 10216 10214 10214 10212 10206 10199 10192 10185 10177 10172 10169 10166 10162 10157 10154 10152 10150 10148 10147 10146 10144 10143 10142 10140 10137 10134 10131 10127 10123 10120 10116 10114 10112 10111 10110 10110 10109 10109 10108 10107 10105 10104 10102 10101 10101 10100 10099 10099 10099 10099 10098 10098 10098 10098 10098 10098 10098 10098
10329 10326 10322 10318 10314 10310 10306 10302 10299 10295 10291 10288 10284 10279 10275 10271 10266 10261 10257 10252 10248 10244 10239 10234 10229 10224 10217 10210 10204 10202 10201 10200 10196 10189 10182 10175 10167 10162 10159 10156 10152 10148 10145 10143 10141 10140 10138 10136 10135 10134 10133 10131 10129 10126 10123 10119 10116 10112 10109 10107 10105 10104 10103 10103 10102 10102 10101 10100 10098 10097 10096 10095 10094 10094 10093 10092 10092 10092 10092 10092 10092 10091 10091 10091 10091 10091
10321 10317 10314 10310 10306 10301 10297 10293 10289 10285 10281 10278 10274 10270 10266 10260 10256 10251 10247 10242 10238 10234 10229 10223 10218 10213 10208 10202 10196 10191 10189 10189 10185 10179 10172 10164 10157 10152 10149 10146 10143 10140 10137 10134 10132 10131 10129 10128 10127 10126 10125 10124 10121 10119 10115 10112 10109 10106 10102 10100 10098 10097 10096 10096 10096 10095 10094 10093 10092 10091 10089 10088 10087 10087 10087 10086 10086 10086 10086 10086 10085 10085 10085 10085 10085 10085
10312 10309 10305 10301 10297 10292 10287 10284 10280 10277 10272 10269 10264 10261 10256 10250 10245 10241 10236 10232 10227 10222 10217 10212 10207 10202 10197 10192 10186 10182 10180 10179 10175 10169 10162 10155 10148 10142 10139 10137 10134 10131 10128 10126 10124 10122 10121 10119 10119 10118 10117 10116 10114 10111 10108 10105 10102 10099 10096 10093 10091 10090 10089 10089 10089 10089 10088 10087 10086 10084 10083 10082 10081 10081 10081 10081 10080 10080 10079 10079 10079 10079 10079 10079 10079 10079
10304 10299 10296 10292 10289 10284 10278 10273 10270 10267 10264 10260 10256 10251 10246 10241 10236 10231 10226 10221 10216 10212 10206 10201 10196 10191 10186 10181 10176 10172 10171 10169 10166 10161 10154 10146 10139 10133 10130 10128 10126 10122 10119 10117 10116 10114 10112 10111 10111 10111 10110 10109 10107 10104 10101 10098 10095 10092 10089 10087 10085 10084 10083 10082 10082 10082 10082 10081 10079 10078 10077 10076 10076 10075 10075 10074 10074 10074 10074 10074 10073 10073 10073 10073 10073 10073
10294 10289 10285 10282 10279 10276 10269 10264 10260 10257 10254 10250 10246 10241 10236 10231 10226 10221 10215 10211 10206 10201 10195 10190 10184 10179 10175 10171 10166 10162 10161 10160 10157 10152 10146 10137 10130 10124 10121 10119 10117 10114 10111 10108 10107 10106 10104 10102 10102 10102 10102 10101 10100 10097 10094 10092 10089 10086 10083 10081 10079 10077 10076 10076 10076 10076 10076 10074 10074 10072 10071 10070 10069 10069 10069 10069 10069 10069 10068 10068 10067 10067 10067 10067 10067 10067
10286 10280 10275 10272 10269 10266 10261 10256 10251 10247 10244 10240 10236 10231 10226 10221 10216 10210 10204 10199 10195 10189 10184 10179 10173 10168 10164 10161 10156 10153 10152 10151 10149 10144 10138 10130 10122 10116 10112 10111 10109 10106 10103 10100 10098 10097 10095 10094 10094 10094 10095 10094 10093 10091 10088 10086 10082 10080 10077 10075 10073 10071 10071 10070 10069 10069 10069 10068 10067 10067 10066 10065 10064 10064 10063 10063 10063 10063 10063 10062 10062 10062 10062 10062 10062 10062
10276 10271 10267 10262 10259 10255 10251 10247 10242 10237 10234 10229 10226 10221 10216 10211 10206 10201 10194 10189 10184 10179 10174 10168 10163 10158 10154 10151 10147 10144 10143 10142 10141 10137 10131 10123 10115 10109 10105 10103 10101 10098 10095 10092 10091 10089 10087 10086 10086 10086 10087 10087 10086 10084 10082 10079 10077 10074 10072 10069 10067 10066 10064 10064 10063 10063 10062 10062 10062 10061 10060 10059 10059 10058 10058 10058 10058 10057 10057 10057 10057 10057 10057 10056 10056 10056
10266 10262 10257 10254 10250 10246 10242 10237 10232 10228 10224 10220 10216 10211 10206 10201 10195 10190 10184 10180 10175 10170 10164 10159 10154 10149 10144 10141 10137 10135 10134 10134 10132 10129 10124 10116 10109 10102 10098 10096 10094 10091 10088 10086 10083 10081 10079 10078 10078 10079 10079 10080 10079 10078 10076 10073 10071 10068 10066 10064 10062 10060 10059 10057 10057 10057 10056 10056 10056 10055 10054 10054 10054 10053 10053 10052 10052 10052 10052 10052 10052 10052 10052 10051 10051 10051
10257 10253 10249 10245 10241 10237 10232 10227 10223 10219 10214 10210 10206 10200 10195 10189 10184 10179 10174 10169 10165 10161 10156 10151 10146 10141 10136 10132 10129 10126 10124 10125 10124 10121 10116 10109 10102 10097 10092 10090 10087 10085 10081 10079 10077 10074 10072 10071 10071 10071 10072 10072 10072 10071 10069 10067 10065 10062 10060 10058 10056 10054 10053 10052 10051 10051 10050 10050 10049 10049 10049 10049 10048 10048 10047 10047 10047 10047 10047 10047 10047 10047 10047 10047 10046 10046
10249 10246 10241 10237 10232 10228 10224 10219 10214 10209 10204 10200 10195 10190 10185 10179 10174 10169 10164 10159 10156 10151 10147 10142 10137 10132 10128 10124 10121 10117 10116 10116 10116 10113 10109 10102 10096 10091 10087 10084 10082 10079 10076 10073 10071 10068 10066 10065 10064 10065 10065 10066 10066 10065 10064 10062 10059 10057 10054 10052 10051 10049 10047 10046 10046 10045 10044 10044 10044 10043 10043 10043 10042 10042 10042 10042 10042 10042 10042 10042 10042 10042 10042 10042 10041 10041
10241 10237 10232 10228 10224 10219 10214 10209 10204 10199 10194 10190 10185 10180 10176 10171 10165 10159 10154 10150 10146 10142 10138 10134 10129 10125 10121 10117 10112 10109 10107 10107 10107 10104 10100 10095 10089 10084 10081 10078 10076 10073 10070 10067 10065 10062 10060 10059 10058 10058 10059 10059 10059 10059 10058 10056 10054 10051 10049 10046 10044 10043 10042 10041 10040 10039 10039 10038 10038 10037 10037 10037 10037 10037 10037 10037 10037 10037 10037 10037 10037 10037 10037 10037 10036 10036
10232 10228 10224 10219 10214 10210 10204 10199 10194 10189 10185 10180 10176 10171 10166 10161 10156 10151 10146 10141 10137 10134 10129 10126 10122 10118 10114 10109 10105 10102 10099 10099 10098 10096 10092 10087 10082 10078 10074 10071 10069 10067 10065 10062 10059 10057 10054 10052 10052 10052 10052 10052 10052 10052 10052 10051 10048 10046 10042 10041 10038 10037 10036 10035 10034 10033 10032 10032 10032 10032 10032 10032 10032 10032 10032 10032 10032 10032 10033 10033 10033 10033 10032 10032 10031 10031
10224 10219 10215 10210 10205 10201 10196 10190 10185 10180 10176 10171 10166 10161 10156 10152 10147 10142 10137 10133 10129 10126 10122 10118 10114 10111 10107 10103 10099 10095 10092 10091 10090 10088 10084 10079 10075 10071 10068 10065 10063 10061 10059 10057 10054 10051 10048 10047 10046 10046 10046 10046 10046 10046 10045 10044 10042 10040 10037 10034 10032 10031 10030 10029 10028 10027 10027 10027 10027 10027 10027 10027 10027 10027 10027 10027 10027 10028 10028 10028 10029 10028 10027 10027 10026 10026
10213 10209 10204 10199 10195 10190 10186 10181 10176 10171 10166 10161 10157 10152 10147 10143 10139 10134 10130 10126 10122 10118 10114 10111 10107 10104 10101 10097 10092 10088 10085 10084 10082 10081 10077 10072 10068 10064 10062 10059 10057 10055 10054 10052 10049 10046 10043 10041 10039 10039 10040 10040 10039 10039 10039 10038 10037 10034 10031 10029 10026 10024 10024 10023 10022 10022 10021 10021 10021 10021 10021 10022 10022 10022 10022 10022 10022 10023 10024 10024 10024 10024 10023 10022 10021 10021
10203 10199 10194 10189 10184 10180 10175 10171 10166 10161 10156 10152 10147 10143 10139 10134 10130 10126 10122 10118 10115 10111 10107 10104 10100 10097 10094 10091 10086 10082 10079 10077 10076 10074 10071 10066 10062 10058 10056 10052 10050 10049 10048 10047 10045 10042 10038 10035 10033 10032 10033 10033 10033 10033 10033 10032 10031 10029 10026 10022 10020 10019 10017 10017 10016 10016 10016 10016 10016 10016 10017 10017 10017 10017 10017 10017 10018 10019 10019 10019 10019 10019 10018 10017 10016 10016
10194 10189 10184 10179 10175 10170 10166 10161 10156 10152 10147 10142 10138 10134 10130 10126 10122 10118 10114 10111 10107 10104 10101 10097 10094 10090 10087 10084 10081 10076 10073 10071 10069 10067 10064 10061 10056 10052 10050 10047 10044 10042 10042 10041 10040 10037 10034 10031 10027 10026 10026 10026 10027 10027 10027 10026 10025 10023 10020 10017 10014 10012 10011 10011 10011 10011 10011 10011 10011 10012 10012 10012 10012 10012 10012 10013 10013 10014 10014 10015 10015 10014 10013 10012 10012 10011
10186 10181 10176 10171 10166 10161 10156 10152 10147 10143 10138 10134 10130 10126 10121 10117 10114 10111 10107 10104 10101 10097 10094 10091 10087 10084 10081 10077 10074 10071 10067 10065 10063 10061 10059 10055 10051 10047 10044 10041 10039 10037 10036 10034 10034 10032 10030 10026 10023 10021 10019 10019 10019 10020 10021 10021 10019 10017 10014 10011 10009 10007 10006 10006 10006 10006 10006 10007 10007 10007 10007 10007 10007 10008 10008 10009 10009 10009 10010 10010 10010 10009 10009 10008 10007 10007
10177 10172 10167 10162 10157 10152 10147 10143 10139 10134 10130 10126 10122 10117 10114 10110 10106 10103 10100 10097 10094 10091 10087 10084 10081 10077 10074 10071 10068 10065 10062 10059 10057 10056 10053 10049 10046 10041 10038 10035 10033 10031 10030 10028 10027 10026 10024 10022 10019 10017 10014 10013 10013 10014 10014 10014 10013 10011 10009 10006 10003 10001 10001 10001 10001 10001 10002 10002 10003 10003 10003 10003 10003 10003 10004 10004 10004 10005 10006 10006 10006 10005 10004 10004 10003 10003
10169 10164 10159 10154 10149 10144 10139 10135 10131 10127 10122 10119 10114 10111 10106 10102 10099 10096 10093 10090 10087 10084 10081 10077 10074 10072 10069 10066 10062 10059 10056 10054 10052 10049 10047 10044 10040 10036 10032 10029 10027 10026 10024 10022 10021 10019 10017 10016 10014 10012 10010 10008 10007 10007 10008 10007 10007 10006 10003 10001 9998 9997 9996 9996 9997 9997 9998 9999 9999 9999 9999 9999 9999 9999 9999 9999 10000 10001 10001 10001 10001 10001 10000 10000 9999 9999
10161 10156 10151 10146 10141 10137 10132 10127 10123 10119 10115 10111 10107 10104 10100 10096 10093 10090 10087 10084 10081 10077 10074 10071 10068 10066 10064 10061 10058 10055 10051 10049 10046 10044 10041 10038 10034 10031 10027 10024 10022 10020 10019 10017 10016 10014 10012 10010 10008 10007 10006 10004 10002 10002 10002 10002 10001 9999 9997 9996 9994 9992 9992 9992 9993 9994 9994 9994 9994 9994 9994 9994 9994 9994 9995 9995 9996 9996 9996 9996 9996 9996 9996 9996 9996 9996
10152 10147 10143 10138 10134 10129 10124 10120 10116 10112 10108 10104 10101 10097 10093 10090 10087 10084 10081 10077 10074 10071 10067 10064 10061 10059 10057 10056 10054 10051 10047 10044 10042 10039 10036 10032 10028 10025 10021 10018 10016 10014 10013 10012 10010 10008 10006 10004 10003 10001 10001 9999 9998 9997 9996 9996 9996 9994 9992 9991 9990 9989 9989 9989 9989 9989 9990 9990 9990 9990 9990 9990 9990 9990 9991 9991 9991 9992 9992 9992 9992 9992 9992 9992 9992 9992
10144 10140 10136 10131 10126 10122 10117 10113 10109 10106 10102 10098 10094 10091 10087 10084 10081 10077 10074 10071 10067 10064 10061 10057 10054 10052 10051 10049 10048 10046 10044 10041 10037 10034 10030 10026 10022 10019 10016 10012 10011 10009 10007 10006 10004 10003 10001 9999 9997 9996 9995 9994 9993 9992 9992 9991 9990 9989 9988 9987 9986 9986 9985 9985 9985 9985 9986 9986 9986 9986 9986 9986 9986 9986 9987 9987 9987 9987 9988 9988 9988 9989 9989 9989 9989 9989
10137 10132 10128 10124 10119 10115 10111 10107 10103 10099 10096 10092 10088 10085 10081 10077 10074 10071 10068 10064 10061 10058 10054 10051 10048 10046 10044 10042 10042 10041 10039 10036 10033 10029 10026 10021 10017 10014 10011 10008 10005 10003 10002 10001 9999 9998 9997 9995 9993 9992 9991 9989 9988 9987 9987 9987 9986 9985 9984 9983 9982 9982 9981 9981 9981 9981 9981 9981 9982 9982 9982 9982 9982 9982 9983 9983 9984 9984 9984 9984 9984 9985 9985 9985 9985 9986
10129 10125 10121 10117 10113 10109 10105 10101 10097 10093 10090 10086 10083 10079 10076 10072 10069 10065 10062 10059 10056 10052 10049 10046 10042 10040 10038 10036 10036 10034 10032 10031 10028 10025 10021 10016 10012 10009 10006 10003 10001 9998 9997 9996 9994 9994 9992 9991 9989 9987 9986 9985 9984 9983 9983 9982 9982 9981 9980 9979 9979 9978 9977 9977 9976 9977 9977 9977 9978 9978 9978 9979 9979 9979 9980 9980 9980 9981 9981 9981 9981 9981 9982 9982 9982 9982
10122 10118 10114 10110 10106 10102 10099 10095 10092 10088 10084 10081 10077 10074 10071 10067 10063 10059 10056 10052 10049 10047 10044 10041 10037 10034 10032 10031 10029 10027 10026 10024 10022 10019 10016 10012 10007 10004 10001 9998 9996 9994 9992 9991 9989 9989 9987 9986 9984 9983 9982 9981 9980 9979 9979 9979 9978 9977 9976 9976 9975 9974 9973 9972 9972 9973 9974 9974 9974 9975 9975 9976 9976 9976 9977 9977 9977 9977 9977 9977 9978 9978 9978 9979 9978 9978
10116 10112 10107 10104 10100 10097 10093 10089 10086 10083 10080 10076 10073 10069 10066 10062 10058 10054 10050 10046 10044 10041 10038 10035 10032 10029 10026 10024 10022 10021 10019 10017 10016 10014 10011 10007 10003 9999 9996 9994 9991 9989 9987 9986 9985 9984 9983 9982 9981 9979 9977 9977 9976 9976 9975 9974 9974 9973 9972 9972 9971 9970 9969 9969 9969 9970 9971 9971 9972 9972 9972 9973 9973 9973 9973 9974 9974 9974 9974 9974 9975 9975 9975 9975 9975 9975
10109 10106 10102 10098 10094 10091 10087 10084 10081 10077 10074 10071 10068 10065 10061 10057 10054 10049 10046 10042 10039 10036 10033 10030 10027 10024 10021 10017 10015 10013 10011 10010 10009 10007 10006 10002 9999 9996 9992 9989 9987 9985 9984 9982 9981 9980 9979 9978 9977 9975 9974 9973 9972 9972 9971 9971 9970 9969 9969 9968 9967 9967 9966 9966 9966 9967 9968 9968 9969 9969 9970 9970 9970 9971 9971 9971 9971 9971 9971 9971 9972 9972 9972 9972 9972 9972
10103 10099 10096 10092 10089 10086 10082 10079 10076 10072 10069 10066 10063 10060 10056 10053 10049 10046 10042 10038 10035 10032 10029 10026 10023 10020 10017 10013 10010 10007 10004 10003 10002 10001 10000 9998 9995 9991 9988 9985 9982 9981 9980 9979 9977 9976 9975 9974 9973 9972 9971 9970 9969 9969 9968 9967 9967 9966 9966 9965 9964 9964 9964 9964 9964 9965 9966 9966 9966 9967 9967 9967 9967 9967 9967 9967 9967 9968 9968 9968 9969 9969 9969 9969 9969 9969
10097 10094 10090 10087 10084 10080 10077 10074 10071 10067 10064 10061 10058 10055 10052 10048 10045 10041 10037 10034 10031 10028 10025 10022 10019 10016 10012 10009 10006 10002 9999 9997 9996 9995 9994 9993 9991 9987 9984 9981 9979 9977 9976 9975 9974 9973 9972 9971 9969 9968 9967 9967 9966 9966 9965 9964 9964 9963 9962 9962 9962 9962 9962 9962 9962 9962 9963 9963 9964 9964 9964 9964 9964 9965 9965 9965 9965 9965 9966 9966 9966 9966 9966 9966 9966 9966
10092 10089 10085 10082 10079 10076 10072 10069 10066 10062 10059 10056 10053 10050 10047 10044 10041 10037 10034 10031 10027 10024 10021 10018 10015 10011 10008 10005 10002 9999 9996 9993 9991 9990 9989 9988 9986 9984 9981 9977 9976 9974 9972 9971 9970 9969 9968 9967 9966 9965 9964 9964 9963 9962 9962 9961 9961 9961 9960 9960 9960 9960 9960 9960 9960 9960 9961 9961 9961 9961 9961 9962 9962 9962 9962 9962 9962 9962 9962 9962 9962 9962 9963 9963 9963 9964
10087 10084 10080 10077 10074 10071 10067 10064 10061 10057 10054 10051 10048 10045 10042 10039 10036 10032 10029 10026 10023 10020 10017 10014 10011 10007 10004 10001 9998 9996 9992 9989 9987 9986 9984 9983 9981 9979 9977 9974 9972 9971 9969 9968 9967 9966 9965 9964 9963 9962 9962 9961 9961 9960 9959 9959 9959 9958 9958 9958 9958 9958 9958 9958 9958 9958 9958 9958 9959 9959 9959 9959 9959 9959 9959 9959 9959 9960 9960 9960 9960 9960 9961 9961 9961 9961
10082 10079 10076 10072 10069 10066 10062 10059 10056 10053 10049 10046 10043 10040 10037 10034 10031 10028 10025 10022 10019 10016 10013 10009 10006 10003 10001 9997 9995 9992 9989 9986 9984 9982 9981 9979 9977 9975 9973 9971 9969 9967 9966 9965 9964 9962 9962 9961 9960 9960 9959 9959 9958 9957 9957 9957 9957 9957 9956 9956 9956 9956 9956 9956 9956 9956 9956 9956 9956 9956 9956 9957 9957 9957 9957 9957 9957 9957 9957 9957 9957 9958 9958 9958 9959 9959
10078 10074 10071 10067 10064 10061 10058 10055 10052 10049 10045 10041 10038 10035 10032 10029 10027 10024 10021 10018 10015 10012 10009 10006 10002 9999 9997 9994 9991 9988 9986 9984 9981 9979 9977 9975 9973 9972 9970 9968 9966 9965 9963 9962 9961 9960 9959 9959 9958 9957 9957 9957 9956 9956 9955 9955 9955 9955 9955 9954 9954 9954 9954 9954 9954 9954 9954 9954 9954 9954 9954 9954 9954 9954 9955 9955 9955 9955 9956 9956 9956 9956 9956 9956 9956 9956
10074 10071 10067 10064 10061 10057 10054 10051 10048 10044 10041 10037 10034 10031 10027 10025 10022 10019 10017 10014 10011 10007 10005 10002 9999 9996 9993 9991 9987 9985 9982 9981 9978 9976 9974 9972 9970 9969 9967 9965 9964 9962 9961 9959 9959 9957 9957 9956 9956 9956 9956 9955 9954 9954 9954 9953 9953 9953 9953 9953 9952 9952 9952 9952 9952 9952 9952 9952 9952 9952 9952 9952 9952 9952 9953 9953 9953 9953 9954 9954 9954 9954 9954 9954 9954 9954
10070 10067 10064 10061 10057 10054 10051 10047 10044 10041 10037 10033 10030 10027 10023 10021 10017 10015 10012 10010 10007 10004 10001 9998 9996 9992 9990 9987 9984 9982 9979 9977 9975 9973 9971 9969 9967 9966 9964 9962 9961 9960 9959 9957 9957 9956 9955 9955 9954 9954 9954 9954 9953 9953 9952 9952 9952 9951 9951 9951 9951 9951 9951 9951 9950 9950 9950 9950 9950 9950 9950 9951 9951 9951 9951 9952 9952 9952 9952 9952 9952 9952 9952 9952 9952 9952